Location: *
(45.0500°N, 12.0500°E)
Time: 13:24:46
(UTC+00:00)

Meteor 2-1 Rocket - Pass Details

Date: 09 April 2020
Orbit: 828 x 909 km, 81.3° (Epoch: 24 May)

Event Time Altitude Azimuth Distance (km) Brightness Sun altitude
Exits shadow 19:41:07 27° 155° (SSE) 1,670 5.3 -18.8°
Maximum altitude 19:44:07 51° 94° (E) 1,133 4.5 -19.3°
Drops below altitude 10° 19:49:50 10° 20° (NNE) 2,604 6.9 -20.1°
Sets 19:52:23 0° 16° (NNE) 3,549 7.7 -20.5°
